Flag for U.S.A. Weather past 2 weeks in Fort Lauderdale, Florida, U.S.A.

Now
78 °F

Passing clouds.


Feels Like: 80 °F
Forecast: 76 / 87 °F
Wind: 8 mph from Southeast

Location: Fort Lauderdale / Hollywood International Airport

Current Time: Apr 25, 2015 at 8:13:49 AM

Latest Report: Apr 25, 2015 at 6:53 AM


Visibility: 10 mi

Pressure: 29.93 "Hg

Humidity: 79%

Dew point: 71 °F

Location of Fort LauderdaleLocation

Historic Weather in Fort Lauderdale — Graph

°F

Fort Lauderdale temperature yesterday

Maximum temperature yesterday: 87 °F (at 12:53 PM)
Minimum temperature yesterday: 74 °F (at 2:53 AM)
Average temperature yesterday: 79 °F

Past Weeks' High & Low Weather Summary

 TemperatureHumidityPressure
High89 °F (Apr 18, 2:53 PM)97% (Apr 24, 2:53 AM)30.17 "Hg (Apr 24, 2:53 AM)
Low74 °F (Apr 22, 6:53 AM)48% (Apr 19, 3:53 PM)29.82 "Hg (Apr 20, 4:53 PM)
Average80 °F76%30.01 "Hg
* Reported Apr 10 6:53 AM — Apr 25 6:53 AM, Fort Lauderdale, Weather by CustomWeather, © 2015

Note: Actual official high and low records may vary slightly from our data, if they occured in-between our weather recording intervals... More about our weather records

Advertising

Fort Lauderdale weather history for previous 24 hours

 ConditionsComfort  
Time TempWeatherWind HumidityBarometerVisibility
6:53 AM
Sat, Apr 25
78 °FPassing clouds.8 mph79%29.93 "Hg10 mi
5:53 AM78 °FPassing clouds.7 mph82%29.92 "Hg10 mi
4:53 AM78 °FPartly cloudy.8 mph82%29.91 "Hg10 mi
3:53 AM78 °FPassing clouds.8 mph82%29.91 "Hg10 mi
2:53 AM78 °FPassing clouds.7 mph79%29.91 "Hg10 mi
1:53 AM78 °FPassing clouds.9 mph79%29.95 "Hg10 mi
12:53 AM78 °FPassing clouds.6 mph82%29.97 "Hg10 mi
11:53 PM
Fri, Apr 24
78 °FPassing clouds.6 mph79%29.98 "Hg10 mi
10:53 PM78 °FPassing clouds.9 mph79%29.97 "Hg10 mi
9:53 PM79 °FPassing clouds.9 mph79%29.96 "Hg10 mi
8:53 PM79 °FPassing clouds.6 mph77%29.95 "Hg10 mi
7:53 PM80 °FPartly sunny.8 mph74%29.93 "Hg10 mi
6:53 PM81 °FBroken clouds.9 mph77%29.93 "Hg10 mi
5:53 PM82 °FPartly sunny.12 mph77%29.92 "Hg10 mi
4:53 PM81 °FPartly sunny.10 mph79%29.91 "Hg10 mi
3:53 PM83 °FScattered clouds.13 mph77%29.92 "Hg10 mi
2:56 PM83 °FBroken clouds.13 mph77%29.94 "Hg10 mi
1:53 PM85 °FScattered clouds.7 mph61%29.95 "Hg10 mi
12:53 PM87 °FScattered clouds.9 mph59%29.96 "Hg10 mi
11:53 AM85 °FScattered clouds.9 mph68%29.98 "Hg10 mi
10:53 AM83 °FBroken clouds.8 mph74%29.99 "Hg10 mi
9:53 AM80 °FPartly sunny.6 mph81%29.98 "Hg10 mi
8:53 AM77 °FPartly sunny.5 mph88%29.96 "Hg10 mi
Weather by CustomWeather, © 2015

See weather overviewHow to use our weather pages